Tinker AFB, OK

11:59 PM CDT on July 27, 2017 (GMT -0500)
Tinker Air Force Base

Weather History for KTIK - November, 2012

Change the Weather History Date:

Tuesday, November 27, 2012

  Actual Average Record
Temperature  
Mean Temperature 38 °F -  
Max Temperature 50 °F 54 °F 71 °F (1998)
Min Temperature 27 °F 35 °F 19 °F (2013)
Degree Days  
Heating Degree Days 26    
Moisture  
Dew Point 26 °F    
Average Humidity 65    
Maximum Humidity 90    
Minimum Humidity 38    
Precipitation  
Precipitation 0.00 in - - ()
Sea Level Pressure  
Sea Level Pressure 30.39 in    
Wind  
Wind Speed 10 mph (WSW)    
Max Wind Speed 16 mph    
Max Gust Speed 23 mph    
Visibility 10 miles    
Events      
Averages and records for this station are not official NWS values.
T = Trace of Precipitation, MM = Missing Value Source: NWS Daily Summary

Daily Weather History Graph

Daily Weather History Graph

Search for Another Location

Airport or City:

Trip Planner

Search our weather history database for the weather conditions in past years. The results will help you decide how hot, cold, wet, or windy it might be!

Date:

Astronomy

Nov. 27, 2012 Rise Set
Actual Time 7:17 AM CST 5:17 PM CST
Civil Twilight 6:49 AM CST 5:45 PM CST
Nautical Twilight 6:17 AM CST 6:16 PM CST
Astronomical Twilight 5:47 AM CST 6:47 PM CST
Moon 4:49 PM CST (11/27) 6:23 AM CST (11/27)
Length of Visible Light 10h 56m
Length of Day
10h 00m
Waxing Gibbous, 99% of the Moon is Illuminated
Nov 27
Waxing Gibbous
Nov 28
Full
Dec 6
Last Quarter
Dec 13
New
Dec 19
First Quarter

Hourly Weather History & Observations

Time (CST) Temp. Windchill Dew Point Humidity Pressure Visibility Wind Dir Wind Speed Gust Speed Precip Events Conditions
12:55 AM 34.9 °F 24.9 °F 26.1 °F 70% 30.39 in 10.0 mi North 16.1 mph 23.0 mph N/A   Clear
1:55 AM 33.3 °F 22.8 °F 26.8 °F 77% 30.40 in 10.0 mi North 16.1 mph - N/A   Clear
2:55 AM 31.8 °F 22.3 °F 26.8 °F 82% 30.40 in 10.0 mi North 12.7 mph - N/A   Clear
3:55 AM 30.4 °F 20.5 °F 26.1 °F 84% 30.40 in 10.0 mi North 12.7 mph - N/A   Clear
4:55 AM 28.4 °F 19.1 °F 25.0 °F 87% 30.41 in 10.0 mi NNW 10.4 mph - N/A   Clear
5:55 AM 28.0 °F 18.1 °F 24.6 °F 87% 30.43 in 10.0 mi NNW 11.5 mph - N/A   Clear
6:55 AM 27.0 °F 16.7 °F 24.4 °F 90% 30.44 in 10.0 mi North 11.5 mph - N/A   Clear
7:55 AM 27.3 °F 18.4 °F 24.8 °F 90% 30.47 in 10.0 mi NNW 9.2 mph - N/A   Clear
8:55 AM 29.5 °F 20.4 °F 25.3 °F 85% 30.48 in 10.0 mi NNW 10.4 mph - N/A   Clear
9:55 AM 33.8 °F 30.8 °F 25.7 °F 72% 30.49 in 10.0 mi Variable 3.5 mph - N/A   Clear
10:55 AM 37.4 °F - 27.0 °F 66% 30.48 in 10.0 mi Calm Calm - N/A   Clear
11:55 AM 44.6 °F - 27.7 °F 52% 30.45 in 10.0 mi Calm Calm - N/A   Clear
12:55 PM 46.8 °F - 27.1 °F 46% 30.41 in 10.0 mi Calm Calm - N/A   Clear
1:55 PM 48.9 °F - 26.8 °F 42% 30.38 in 10.0 mi Variable 4.6 mph - N/A   Clear
2:55 PM 50.5 °F - 25.9 °F 38% 30.34 in 10.0 mi South 6.9 mph - N/A   Clear
3:55 PM 50.7 °F - 25.5 °F 38% 30.32 in 10.0 mi SSW 6.9 mph - N/A   Clear
4:55 PM 49.1 °F - 25.9 °F 40% 30.32 in 10.0 mi SSW 9.2 mph - N/A   Clear
5:55 PM 44.1 °F 40.1 °F 25.5 °F 48% 30.32 in 10.0 mi South 6.9 mph - N/A   Clear
6:55 PM 42.4 °F 38.1 °F 25.5 °F 51% 30.31 in 10.0 mi South 6.9 mph - N/A   Clear
7:55 PM 41.9 °F 36.9 °F 26.1 °F 53% 30.33 in 10.0 mi South 8.1 mph - N/A   Clear
8:55 PM 39.6 °F 34.0 °F 26.6 °F 60% 30.34 in 10.0 mi South 8.1 mph - N/A   Clear
9:55 PM 38.3 °F 33.2 °F 25.7 °F 61% 30.35 in 10.0 mi South 6.9 mph - N/A   Clear
10:55 PM 38.3 °F 31.9 °F 27.0 °F 64% 30.34 in 10.0 mi South 9.2 mph - N/A   Clear
11:55 PM 35.2 °F 27.6 °F 28.0 °F 75% 30.35 in 10.0 mi South 10.4 mph - N/A   Clear